Dewpoint
66 67 66 66 67 67 67 67 66 66 66 66 66 65 65 64 64 64 64 64 64 64 63 63 63 62 61 61 61 60 55 55
65 66 65 65 65 66 66 66 65 65 65 64 64 64 64 64 64 64 64 64 64 63 62 62 61 61 59 59 57 57 53 53
64 63 62 62 63 64 66 65 64 64 63 63 61 60 59 60 63 64 64 63 62 59 57 57 57 56 54 53 52 49 51 51
63 62 62 62 64 64 64 62 61 61 60 60 59 61 61 60 62 63 61 60 58 56 53 53 49 43 42 46 41 42 42 43
60 60 62 63 63 62 61 60 60 61 60 59 61 61 62 63 63 59 55 53 47 47 46 43 45 42 41 42 41 40 39 37
59 61 62 63 62 60 59 59 59 58 60 62 63 62 63 61 58 56 53 49 48 46 45 46 44 43 42 41 41 37 37 37
59 60 61 62 60 59 59 59 59 60 61 63 64 62 60 57 56 53 51 47 45 44 43 41 41 40 40 39 38 39 40 39
56 59 60 61 59 59 58 59 59 60 61 62 62 60 58 56 54 51 48 45 43 42 41 38 37 38 38 39 38 36 37 43
53 56 61 61 59 58 59 60 62 62 62 62 61 59 57 55 51 48 45 45 46 43 41 40 37 35 38 37 36 38 36 37
54 58 61 61 59 58 59 61 63 63 63 62 60 58 55 52 49 48 48 46 43 42 40 39 38 36 38 36 36 36 36 36
59 61 61 61 60 61 62 63 62 62 62 59 57 55 54 51 49 49 48 45 45 42 41 40 38 37 35 38 38 36 37 33
59 60 60 59 60 61 61 61 61 60 59 58 55 52 53 51 49 49 47 44 43 42 42 41 40 40 33 36 39 37 38 38
59 59 59 58 58 59 59 59 58 58 57 53 52 51 52 52 48 48 46 44 43 44 42 42 41 42 38 38 37 37 38 37
59 58 58 58 57 57 57 57 56 56 53 52 51 51 51 50 48 46 46 43 44 44 43 41 41 41 39 37 32 32 35 36
58 58 58 58 58 56 55 55 53 52 52 50 50 50 49 48 47 46 45 44 42 44 43 42 39 41 41 36 29 25 31 36
58 58 58 57 57 57 55 54 52 52 50 50 50 51 49 47 46 46 45 44 44 44 43 42 41 38 40 38 40 37 26 25
59 58 57 57 57 57 56 55 55 53 50 50 50 49 48 46 46 46 45 44 45 44 44 43 41 36 34 35 37 36 38 34
59 58 57 57 57 57 56 55 54 51 49 49 48 47 46 46 43 45 44 43 42 42 41 40 38 38 37 37 34 32 31 34
57 57 57 58 58 57 57 56 54 52 50 49 48 46 44 44 44 43 42 41 41 39 38 38 38 36 37 36 38 37 36 33
57 56 57 58 58 57 57 56 54 52 50 49 48 46 44 44 44 44 42 42 39 37 37 37 38 40 40 40 38 35 35 33
Lifted_Index
-2 -2 -1 -1 -1 -1 -1 -0 0 0 0 0 -0 -1 -2 -2 -2 -2 -1 -0 0 1 2 2 3 3 4 4 4 4 4 3
-1 -1 -0 0 0 -0 -0 0 0 0 1 1 -0 -1 -2 -2 -2 -2 -1 0 1 2 3 3 3 4 4 4 4 4 4 4
-1 0 2 2 2 1 0 1 1 1 1 1 0 -1 -2 -1 -1 -1 0 1 2 3 3 4 4 4 4 4 5 5 5 5
0 1 2 3 2 2 1 2 2 2 2 1 -0 -1 -2 -1 -1 0 2 2 3 3 3 3 4 4 4 4 5 5 6 7
2 2 2 2 2 2 2 3 3 2 1 0 -1 -2 -1 -1 -0 1 2 2 3 3 3 3 3 3 4 5 6 7 9 9
3 3 2 2 2 3 3 3 2 1 0 -1 -2 -2 -1 -1 0 1 1 2 2 2 2 3 3 4 6 8 10 11 11 12
4 3 3 2 3 3 3 2 1 -0 -1 -2 -2 -1 -1 -0 -0 0 1 1 2 2 3 4 5 7 9 11 12 13 13 13
4 4 2 2 2 3 2 1 -1 -1 -2 -2 -1 -1 -1 -0 0 1 1 2 2 3 5 6 8 10 12 13 14 14 13 13
4 3 2 1 2 2 1 -1 -1 -2 -2 -1 -1 -1 -0 0 1 1 2 3 4 6 7 9 10 11 12 13 14 14 14 13
2 1 -0 -0 1 1 -0 -1 -1 -1 -1 -1 -1 -0 0 1 1 2 3 5 7 8 9 9 10 11 13 14 14 14 14 14
-1 -1 -1 -1 0 1 -0 -1 -1 -1 -1 -1 -0 0 1 1 2 3 5 7 8 8 8 9 9 11 12 13 14 14 13 13
-2 -2 -2 -1 1 1 0 -1 -1 -1 -1 -0 0 1 2 2 4 5 7 8 8 8 8 8 9 11 12 12 13 13 13 13
-2 -2 -2 -0 1 1 0 -1 -1 -1 -0 0 1 2 3 4 6 7 7 7 8 8 8 8 9 10 10 11 11 12 13 12
-1 -1 -2 -1 0 1 -0 -1 -1 -1 0 1 2 3 4 6 7 7 7 7 8 8 8 7 8 9 9 9 9 10 12 12
-1 -2 -2 -2 -1 -0 -1 -1 -1 -0 0 1 3 4 6 7 7 7 7 8 8 8 8 7 7 8 9 9 9 10 11 12
-1 -2 -2 -2 -1 -1 -1 -1 -0 -0 0 1 2 4 6 7 7 7 7 8 8 8 7 7 8 9 10 10 10 11 11 12
-1 -2 -2 -2 -1 -1 -1 -1 -0 -0 -0 1 2 4 5 6 6 7 7 8 8 8 8 9 9 10 11 12 12 12 12 12
-1 -1 -2 -2 -1 -1 -1 -1 -1 -0 0 1 2 3 5 5 6 6 7 7 7 7 9 10 11 12 12 12 12 12 12 12
-1 -1 -2 -2 -1 -1 -1 -1 -1 -0 0 1 2 3 4 5 5 6 6 6 6 7 10 11 12 12 12 12 12 12 12 12
-1 -1 -2 -1 -1 -1 -1 -1 -1 -0 1 2 3 3 4 4 5 5 6 6 6 8 10 12 12 13 12 12 12 12 12 12